Location: Huesca
(42.1318°N, 0.4078°W)
Time: 00:53:31
(UTC+02:00)

CUTE 1.7 + AOD 2 - Pass Details

Date: 26 April 2024
Orbit: 569 x 586 km, 97.8° (Epoch: 27 May)

Event Time Altitude Azimuth Distance (km) Brightness Sun altitude
Rises 05:37:09 0° 12° (NNE) 2,785 ? -15.1°
Reaches altitude 10° 05:39:18 10° 12° (NNE) 1,881 ? -14.8°
Maximum altitude 05:43:23 89° 280° (W) 576 ? -14.2°
Enters shadow 05:46:55 13° 194° (SSW) 1,657 ? -13.6°
